EZY1EU EGNS-EGGP

Flight info

Callsign EZY1EU
Flight time 0h 20m
Altitude 15000
Route TIMIS Q39 DANDI DCT PENIL
Aircraft A319/M-SDE3FGHIRWY/LB1

Departure

Time 2026-04-29 17:10
Airport Isle of Man Airport (EGNS)

Arrival

Time 2026-04-29 17:31
Airport Liverpool John Lennon Airport (EGGP)
Time Latitude Longitude Altitude Speed Heading
2026-04-29 17:07 54.08565 -4.63406 43 ft 0 kts 134°
2026-04-29 17:07 54.08562 -4.63401 46 ft 3 kts 134°
2026-04-29 17:08 54.08512 -4.63340 46 ft 11 kts 179°
2026-04-29 17:08 54.08436 -4.63394 43 ft 14 kts 196°
2026-04-29 17:08 54.08354 -4.63476 43 ft 16 kts 255°
2026-04-29 17:08 54.08326 -4.63639 47 ft 14 kts 244°
2026-04-29 17:09 54.08275 -4.63797 44 ft 13 kts 241°
2026-04-29 17:09 54.08204 -4.63904 37 ft 15 kts 179°
2026-04-29 17:09 54.08142 -4.63844 35 ft 8 kts 103°
2026-04-29 17:09 54.08162 -4.63698 35 ft 34 kts 77°
2026-04-29 17:10 54.08269 -4.62847 45 ft 108 kts 78°
2026-04-29 17:10 54.08454 -4.61373 387 ft 132 kts 78°
2026-04-29 17:10 54.08654 -4.59831 1125 ft 133 kts 80°
2026-04-29 17:10 54.08845 -4.58245 1693 ft 146 kts 84°
2026-04-29 17:11 54.08625 -4.56431 2051 ft 174 kts 117°
2026-04-29 17:11 54.07636 -4.54969 2513 ft 212 kts 153°
2026-04-29 17:11 54.06034 -4.54815 3098 ft 248 kts 182°
2026-04-29 17:11 54.04308 -4.55427 4105 ft 256 kts 189°
2026-04-29 17:12 54.02577 -4.56249 5149 ft 261 kts 191°
2026-04-29 17:12 54.00816 -4.57131 6111 ft 266 kts 192°
2026-04-29 17:12 53.99014 -4.58017 7045 ft 272 kts 191°
2026-04-29 17:12 53.97794 -4.58517 7641 ft 272 kts 183°
2026-04-29 17:13 53.95329 -4.58078 8894 ft 267 kts 155°
2026-04-29 17:13 53.93763 -4.56449 9856 ft 265 kts 135°
2026-04-29 17:13 53.92605 -4.53999 10620 ft 274 kts 124°
2026-04-29 17:13 53.91485 -4.51215 10950 ft 297 kts 124°
2026-04-29 17:14 53.90298 -4.48265 11559 ft 308 kts 123°
2026-04-29 17:14 53.89076 -4.45240 12356 ft 312 kts 124°
2026-04-29 17:14 53.87860 -4.42237 13218 ft 314 kts 124°
2026-04-29 17:14 53.86620 -4.39185 14083 ft 316 kts 124°
2026-04-29 17:15 53.85367 -4.36112 14825 ft 318 kts 124°
2026-04-29 17:15 53.84101 -4.33013 15179 ft 319 kts 124°
2026-04-29 17:15 53.82838 -4.29920 15280 ft 318 kts 124°
2026-04-29 17:15 53.81598 -4.26885 15310 ft 317 kts 124°
2026-04-29 17:16 53.80345 -4.23819 15308 ft 317 kts 124°
2026-04-29 17:16 53.79088 -4.20757 15310 ft 316 kts 124°
2026-04-29 17:16 53.77828 -4.17703 15310 ft 316 kts 124°
2026-04-29 17:16 53.76563 -4.14639 15298 ft 319 kts 124°
2026-04-29 17:17 53.75291 -4.11550 15304 ft 320 kts 124°
2026-04-29 17:17 53.74021 -4.08462 15306 ft 320 kts 124°
2026-04-29 17:17 53.72747 -4.05373 15305 ft 320 kts 124°
2026-04-29 17:17 53.71487 -4.02330 15307 ft 320 kts 125°
2026-04-29 17:18 53.70208 -3.99247 15303 ft 320 kts 125°
2026-04-29 17:18 53.68937 -3.96163 15305 ft 320 kts 123°
2026-04-29 17:18 53.67916 -3.92821 15310 ft 321 kts 113°
2026-04-29 17:18 53.67091 -3.89307 15308 ft 321 kts 113°
2026-04-29 17:19 53.66269 -3.85837 15178 ft 322 kts 113°
2026-04-29 17:19 53.65431 -3.82319 14572 ft 325 kts 113°
2026-04-29 17:19 53.64585 -3.78782 14046 ft 324 kts 113°
2026-04-29 17:19 53.63742 -3.75269 13589 ft 320 kts 113°
2026-04-29 17:20 53.62913 -3.71821 13191 ft 315 kts 113°
2026-04-29 17:20 53.62080 -3.68427 12784 ft 310 kts 116°
2026-04-29 17:20 53.60937 -3.65389 12355 ft 306 kts 130°
2026-04-29 17:20 53.59469 -3.62888 11917 ft 303 kts 135°
2026-04-29 17:21 53.57952 -3.60442 11470 ft 300 kts 135°
2026-04-29 17:21 53.56455 -3.58018 11037 ft 298 kts 135°
2026-04-29 17:21 53.54964 -3.55607 10609 ft 296 kts 135°
2026-04-29 17:21 53.53507 -3.53255 10465 ft 284 kts 135°
2026-04-29 17:22 53.52107 -3.50999 10346 ft 273 kts 135°
2026-04-29 17:22 53.50749 -3.48811 10137 ft 266 kts 134°
2026-04-29 17:22 53.49393 -3.46624 9568 ft 272 kts 134°
2026-04-29 17:22 53.48184 -3.44300 9265 ft 265 kts 122°
2026-04-29 17:23 53.47335 -3.41575 8880 ft 262 kts 115°
2026-04-29 17:23 53.46546 -3.38818 8347 ft 265 kts 116°
2026-04-29 17:23 53.45729 -3.35989 7621 ft 273 kts 116°
2026-04-29 17:23 53.44898 -3.33125 7246 ft 270 kts 116°
2026-04-29 17:24 53.44097 -3.30358 7089 ft 257 kts 116°
2026-04-29 17:24 53.43118 -3.27950 6953 ft 246 kts 132°
2026-04-29 17:24 53.41806 -3.26044 6309 ft 254 kts 139°
2026-04-29 17:24 53.40412 -3.24154 5606 ft 260 kts 139°
2026-04-29 17:25 53.39010 -3.22274 4957 ft 256 kts 139°
2026-04-29 17:25 53.37634 -3.20436 4328 ft 250 kts 138°
2026-04-29 17:25 53.36292 -3.18643 3725 ft 243 kts 137°
2026-04-29 17:25 53.35003 -3.16917 3412 ft 226 kts 136°
2026-04-29 17:26 53.33836 -3.15353 3362 ft 209 kts 136°
2026-04-29 17:26 53.32827 -3.13764 3312 ft 190 kts 122°
2026-04-29 17:26 53.32268 -3.11839 3102 ft 183 kts 103°
2026-04-29 17:26 53.32191 -3.09762 2848 ft 175 kts 87°
2026-04-29 17:27 53.32287 -3.07802 2620 ft 163 kts 87°
2026-04-29 17:27 53.32375 -3.05965 2382 ft 153 kts 86°
2026-04-29 17:27 53.32456 -3.04267 2191 ft 137 kts 85°
2026-04-29 17:27 53.32527 -3.02766 2009 ft 124 kts 85°
2026-04-29 17:28 53.32594 -3.01359 1848 ft 120 kts 85°
2026-04-29 17:28 53.32659 -2.99995 1689 ft 119 kts 85°
2026-04-29 17:28 53.32725 -2.98604 1523 ft 119 kts 87°
2026-04-29 17:28 53.32790 -2.97232 1360 ft 118 kts 86°
2026-04-29 17:29 53.32854 -2.95866 1202 ft 117 kts 85°
2026-04-29 17:29 53.32918 -2.94517 1045 ft 115 kts 86°
2026-04-29 17:29 53.32981 -2.93163 877 ft 117 kts 88°
2026-04-29 17:29 53.33024 -2.92251 775 ft 120 kts 87°
2026-04-29 17:30 53.33111 -2.90411 567 ft 115 kts 84°
2026-04-29 17:30 53.33173 -2.89061 405 ft 119 kts 88°
2026-04-29 17:30 53.33239 -2.87669 255 ft 119 kts 86°
2026-04-29 17:30 53.33302 -2.86331 117 ft 111 kts 86°
2026-04-29 17:31 53.33351 -2.85238 92 ft 75 kts 85°
2026-04-29 17:31 53.33392 -2.84650 88 ft 40 kts 73°
2026-04-29 17:31 53.33488 -2.84331 89 ft 25 kts 59°
2026-04-29 17:31 53.33552 -2.84329 89 ft 10 kts 277°
2026-04-29 17:32 53.33551 -2.84456 89 ft 12 kts 266°
2026-04-29 17:32 53.33545 -2.84595 89 ft 12 kts 265°
2026-04-29 17:32 53.33538 -2.84741 92 ft 13 kts 265°
2026-04-29 17:32 53.33530 -2.84900 89 ft 14 kts 265°
2026-04-29 17:33 53.33537 -2.85040 89 ft 11 kts 309°
2026-04-29 17:33 53.33590 -2.85107 89 ft 9 kts 280°
2026-04-29 17:33 53.33586 -2.85190 89 ft 3 kts 264°
2026-04-29 17:33 53.33586 -2.85194 89 ft 0 kts 264°